Theta_e
332 332 334 335 337 335 335 335 336 336 336 338 338 337 338 337 337 336 336 336 335 336 335 335 336 336 336 334 335 335 335 334 333 331 330 330 328 327 329 331 331 331 330 328 326 323 320 316 317 327 328 325 325 325 324 323 323 323 323 323 322 323 325
334 333 333 333 333 334 334 333 334 332 334 335 336 337 338 337 337 337 337 336 336 335 335 334 336 336 335 334 333 334 334 334 334 335 333 331 331 329 328 329 330 328 328 329 328 328 321 318 317 318 317 324 323 322 321 321 320 319 320 321 321 324 327
332 331 332 332 332 333 333 333 333 332 331 331 333 335 337 337 337 337 336 336 337 336 334 334 336 336 336 334 334 336 336 336 335 335 334 334 333 333 331 330 328 327 326 326 326 325 324 324 317 317 319 320 316 318 320 319 318 318 318 320 322 323 325
332 331 330 330 329 331 331 331 331 331 331 331 331 333 336 336 337 336 336 336 337 336 334 334 336 336 337 337 335 335 336 336 335 335 334 334 334 333 331 330 329 328 326 324 324 326 324 321 319 319 320 319 318 317 316 319 320 320 320 321 320 321 323
332 331 330 329 328 329 331 330 330 329 329 329 331 331 333 335 335 335 335 335 335 336 335 336 336 335 336 335 335 336 334 334 335 334 334 333 333 333 332 331 331 331 329 329 328 329 326 323 321 318 317 318 318 318 317 318 318 317 317 317 317 318 318
332 332 331 330 329 329 330 329 328 327 328 328 329 331 333 334 334 334 334 334 334 335 335 334 335 334 334 334 334 333 334 333 333 334 333 334 333 332 331 331 330 329 329 331 331 329 329 326 323 318 319 320 316 315 315 316 313 315 315 315 316 315 314
332 332 331 330 330 330 330 330 329 328 327 329 329 332 332 333 333 334 335 335 334 333 332 333 333 333 334 332 333 333 333 333 333 334 334 334 334 335 334 330 329 329 330 331 331 330 327 325 322 320 318 318 318 314 314 313 313 311 312 314 315 315 314
331 331 331 331 330 329 330 330 330 330 328 329 329 330 330 332 332 332 333 332 331 331 330 330 329 330 330 329 330 331 330 330 331 332 333 333 332 332 333 332 331 331 330 330 331 330 328 328 325 323 320 315 315 314 312 313 314 312 311 312 313 313 314
331 331 330 329 329 330 330 330 330 331 331 329 329 329 329 331 331 331 330 329 328 327 326 326 326 326 327 328 327 329 326 324 328 328 329 330 331 331 332 333 331 330 331 330 331 330 329 329 328 326 324 319 313 310 313 312 312 310 312 310 312 313 313
330 329 328 328 328 329 330 331 330 328 328 329 328 328 328 329 331 330 328 327 326 326 326 326 326 325 326 326 326 325 324 324 325 324 325 327 327 329 330 332 331 331 330 332 331 331 331 330 329 327 325 321 318 313 311 311 312 310 310 312 308 310 313
329 330 329 328 328 327 327 328 327 325 326 327 327 326 328 328 328 327 328 326 325 325 326 325 324 324 324 323 323 323 322 324 323 323 323 324 326 328 329 329 331 329 330 330 330 331 330 330 327 326 324 324 321 314 313 310 311 314 311 313 313 308 311
329 329 329 328 328 327 327 326 327 326 326 325 325 326 327 327 327 326 327 325 324 323 324 325 324 324 324 322 323 321 322 324 322 322 322 323 323 326 328 329 330 329 330 331 330 330 330 329 327 325 323 323 323 323 317 313 309 314 316 310 312 312 310
327 328 328 327 327 328 327 326 326 325 326 325 325 326 326 325 325 325 324 324 323 323 323 323 324 323 324 324 323 321 322 324 321 321 320 321 320 326 327 328 328 329 329 329 329 329 328 328 328 324 324 322 322 325 320 315 312 311 317 315 313 311 312
328 328 327 328 328 328 328 327 327 327 325 325 324 324 325 325 324 324 322 322 322 323 322 323 324 324 323 322 323 322 321 321 319 321 321 320 320 324 325 326 326 327 329 329 329 329 327 327 327 327 325 322 321 323 319 316 313 314 316 319 316 310 312
327 327 327 327 328 327 326 326 326 325 326 324 324 324 324 324 324 323 322 321 322 321 322 322 323 323 321 322 322 323 323 320 319 320 323 319 320 322 324 324 323 325 327 328 329 326 326 325 324 323 323 323 321 321 322 318 315 312 312 316 314 315 313
325 326 326 326 326 325 326 325 324 325 325 323 324 324 324 323 323 322 321 321 320 321 321 322 323 323 322 321 320 321 323 322 320 320 320 320 317 320 321 322 322 323 324 327 327 327 327 325 324 322 324 324 323 322 320 318 317 314 313 313 316 311 312
325 325 325 326 326 326 325 324 324 325 324 323 322 323 324 322 322 322 321 320 320 320 321 322 321 321 320 320 320 319 320 321 321 321 320 319 319 321 321 320 321 322 324 324 323 324 324 325 325 324 325 326 325 323 323 321 320 319 315 313 313 311 313
325 325 325 325 326 325 325 324 323 323 323 323 322 322 322 323 322 321 322 319 319 320 320 320 320 321 322 323 321 321 320 320 321 320 321 321 321 322 321 321 320 320 321 321 321 319 319 321 319 321 321 321 321 323 322 321 320 319 317 313 314 314 316
324 325 325 326 325 325 324 323 322 323 323 322 322 322 322 322 322 321 320 319 319 319 320 320 319 319 320 322 323 323 322 321 321 320 320 320 320 321 322 321 322 323 322 322 322 323 321 320 317 319 318 317 316 319 320 320 319 318 318 315 315 313 314
323 323 324 323 323 321 321 321 320 320 321 321 321 320 321 321 322 321 321 321 320 320 319 320 321 322 321 321 322 321 322 322 322 322 321 319 321 321 321 321 322 323 321 321 322 322 323 322 320 319 319 320 317 317 318 318 316 316 317 317 315 314 313
322 322 322 322 321 321 320 320 320 320 320 320 321 320 320 321 322 321 323 322 322 323 322 321 321 322 321 323 323 323 323 323 322 322 323 321 322 321 322 322 322 322 322 322 323 323 324 322 322 321 320 318 318 317 317 317 316 315 315 315 313 313 313
322 322 322 322 322 322 321 321 321 320 320 320 321 321 322 322 321 320 320 322 321 323 323 323 323 323 323 322 323 323 323 321 322 321 322 322 322 322 322 323 323 323 325 323 313 316 319 319 322 321 321 320 318 317 316 316 315 314 314 314 313 314 312
322 322 321 321 320 322 322 323 323 322 320 319 319 320 320 320 320 321 320 320 322 323 324 325 317 307 310 322 323 321 323 324 323 322 322 323 324 323 323 324 325 321 315 313 309 303 302 304 310 319 323 321 319 317 316 314 313 313 312 310 310 311 310
319 319 319 318 318 319 318 317 319 321 319 318 320 318 318 318 319 321 320 321 322 323 324 320 301 301 300 302 318 324 323 324 324 323 323 323 322 324 326 324 326 321 318 315 315 300 299 298 300 300 304 310 315 321 319 316 316 316 312 311 312 312 310
316 317 317 317 318 319 321 320 320 319 319 317 315 316 316 316 318 319 319 319 321 322 322 299 294 297 299 298 302 320 323 323 324 324 324 324 324 325 326 327 326 326 327 327 326 320 307 299 297 298 298 298 299 300 303 318 320 317 317 314 313 313 312
312 314 316 317 318 318 318 317 317 317 316 316 316 315 316 317 318 319 321 320 321 321 315 295 293 293 294 297 295 305 321 322 322 323 324 324 324 325 326 326 326 326 325 318 319 323 322 318 300 297 298 297 297 296 296 295 297 319 321 317 316 316 315
305 305 305 306 307 308 309 309 310 312 312 312 311 314 315 315 316 317 319 321 320 315 307 296 293 293 293 291 291 301 320 322 323 322 322 323 324 324 325 325 324 325 327 325 325 325 323 322 320 316 315 316 318 310 295 295 295 291 303 318 319 317 319
301 302 302 302 303 303 304 304 305 305 306 307 308 309 310 311 311 312 313 315 316 310 302 292 292 293 293 293 292 298 320 320 322 322 323 323 322 323 323 323 323 323 325 325 325 322 324 323 323 322 320 320 319 319 319 319 318 319 317 317 319 320 321
301 301 301 302 302 302 302 303 303 305 305 305 306 307 306 307 307 307 309 312 312 309 303 292 292 293 293 293 295 313 317 320 322 322 323 323 323 323 323 323 323 323 324 324 315 302 308 320 322 321 320 320 319 318 318 302 294 296 307 315 317 318 320
300 301 301 301 301 301 301 300 300 302 303 303 302 303 303 303 303 304 305 305 307 307 304 295 291 292 292 292 302 315 315 318 320 321 323 323 323 323 323 323 323 323 324 324 311 299 297 302 319 319 319 320 319 317 317 311 295 291 291 293 294 294 295
298 299 299 299 300 301 302 301 300 302 303 303 303 303 304 303 302 302 302 302 303 304 304 297 291 292 292 292 298 311 312 315 317 318 320 322 322 322 321 312 315 321 322 323 300 297 293 304 319 320 320 319 318 316 316 313 310 304 292 292 291 291 291
297 296 296 297 298 298 299 300 300 300 302 301 300 301 301 302 301 301 302 302 300 303 303 300 292 291 292 292 299 309 310 313 314 315 315 317 320 321 321 315 307 311 315 312 294 295 292 302 319 319 319 319 317 317 318 315 311 309 308 307 304 303 299
298 297 296 297 297 296 297 297 298 298 298 299 299 300 301 300 300 299 300 301 300 301 302 302 296 291 291 292 292 305 309 309 309 309 311 312 313 316 318 320 314 297 293 291 292 292 293 293 312 318 318 317 316 315 320 316 313 313 311 310 308 306 304
297 298 298 297 297 297 296 296 297 297 297 297 298 297 297 298 299 298 298 298 299 299 300 301 299 291 291 291 291 296 306 305 305 305 307 308 310 311 313 315 319 297 293 294 294 292 292 292 294 310 315 316 317 317 311 314 309 300 311 308 304 302 301
297 297 298 298 297 296 296 296 296 296 296 296 296 296 296 296 296 296 297 298 297 298 298 296 299 294 291 291 290 290 299 301 298 301 303 306 308 310 311 312 313 301 293 295 294 293 292 292 291 301 310 301 301 297 310 313 310 307 306 303 301 300 299
296 297 297 297 297 296 297 297 297 297 297 297 296 295 295 295 295 295 296 297 297 297 297 297 293 295 291 290 290 290 289 294 290 300 303 303 305 306 308 308 308 298 292 292 292 292 291 291 292 299 296 295 296 293 299 309 306 304 302 301 301 301 300
297 297 297 297 297 297 297 297 297 297 297 297 297 297 296 296 295 294 294 294 295 296 296 297 295 292 293 290 290 290 289 289 289 296 299 301 304 304 305 306 302 292 291 291 291 291 292 291 299 295 293 292 293 293 306 306 304 304 300 299 300 299 299
Wind_Speed
9 9 7 5 4 5 5 5 4 3 3 2 4 4 5 6 5 5 5 5 5 5 4 4 3 3 3 3 4 4 4 4 6 5 5 5 6 5 1 1 1 3 4 1 5 4 5 7 6 6 8 8 8 8 7 6 5 5 5 4 4 3 3
8 7 6 6 5 5 6 4 4 4 3 2 2 4 4 5 5 5 5 5 5 5 4 3 3 3 5 5 5 4 5 4 4 4 4 5 5 4 5 3 3 4 4 2 4 3 7 8 7 8 7 7 9 7 5 5 4 4 4 4 4 4 6
6 6 6 6 5 5 6 5 5 5 5 4 3 3 3 4 4 4 5 5 5 4 3 2 3 4 4 4 5 4 5 5 3 4 4 3 4 4 5 4 4 5 4 4 5 5 5 4 7 9 8 7 6 4 4 4 4 4 4 3 4 4 5
10 8 7 7 6 6 6 6 5 5 4 4 4 3 3 4 4 3 3 3 2 2 3 3 4 4 4 4 4 4 4 5 4 4 3 3 4 4 4 4 4 6 5 6 6 6 5 6 8 7 6 5 8 7 4 3 4 4 4 4 4 4 4
10 8 9 8 8 8 7 6 4 4 4 3 3 4 4 4 4 4 3 3 2 2 3 2 2 2 2 2 3 3 4 4 3 4 4 4 5 3 4 3 3 3 2 3 5 5 5 7 7 9 7 7 6 6 5 5 5 5 4 4 4 5 4
9 10 9 9 8 7 7 7 6 6 4 4 3 4 4 6 5 5 4 4 3 2 2 2 2 2 2 3 3 3 3 3 3 3 3 4 5 4 4 3 3 3 2 2 3 4 4 6 8 9 7 6 7 6 5 4 4 5 4 5 4 4 5
8 9 8 8 7 6 6 7 7 6 5 5 4 3 4 5 3 3 4 4 3 3 3 2 2 2 2 2 3 3 3 2 2 3 3 5 4 4 3 4 4 3 1 2 4 5 6 7 7 8 8 7 7 5 5 5 4 5 5 4 4 4 4
8 7 7 7 7 7 6 7 6 5 6 4 3 3 4 4 5 4 4 4 4 3 3 3 2 2 2 2 3 3 3 1 2 2 2 4 4 4 4 4 4 3 2 4 5 5 6 6 7 8 9 10 6 4 5 4 4 4 6 4 4 4 4
7 6 5 5 5 6 7 6 6 5 4 4 3 4 4 5 5 5 4 4 4 3 3 3 2 2 2 2 3 3 4 2 3 2 2 2 2 3 3 3 4 4 3 4 5 5 5 5 5 6 5 8 9 7 4 5 4 5 4 5 4 3 4
8 9 7 8 7 5 5 5 6 5 5 4 4 3 5 4 4 5 5 5 4 3 3 3 3 3 3 3 3 3 4 3 3 3 2 2 3 2 3 4 3 4 4 4 3 4 4 4 5 5 3 4 5 8 6 6 5 5 5 4 4 5 4
8 8 8 9 7 7 5 4 5 6 5 4 4 3 4 5 5 5 5 5 4 3 3 3 3 4 4 4 4 4 3 4 5 4 3 3 3 2 3 3 3 4 4 4 4 4 4 5 5 4 3 3 4 6 6 6 6 4 6 4 2 6 6
7 8 7 8 8 8 8 6 6 5 6 6 5 5 5 5 5 4 5 5 4 4 3 3 3 4 4 5 4 4 3 3 5 5 3 3 3 3 4 4 4 4 4 4 5 5 5 5 5 4 3 2 0 2 5 5 6 4 3 6 4 4 8
9 9 8 8 7 7 8 7 7 6 6 5 5 6 6 6 6 6 5 5 5 4 4 3 3 4 4 4 4 4 3 3 5 6 5 3 3 4 5 5 4 4 4 5 5 5 5 5 5 4 4 3 1 1 3 3 3 7 4 3 5 5 7
7 7 8 8 7 6 6 7 6 6 6 5 6 6 6 6 6 6 7 6 6 5 5 4 3 4 4 4 3 4 3 4 5 4 5 5 4 4 4 5 4 3 4 4 5 5 5 6 5 4 3 3 1 2 2 1 3 7 4 1 4 6 7
7 7 8 7 6 6 6 6 6 6 7 6 5 6 6 5 5 6 7 7 6 5 5 5 3 3 4 4 4 2 3 4 4 4 4 6 4 3 3 4 5 4 3 3 4 5 5 6 6 5 4 3 2 2 1 0 2 5 7 5 5 5 7
7 8 8 7 7 7 6 6 7 7 7 6 4 4 5 5 5 6 6 6 6 5 5 5 3 3 4 4 4 3 2 3 4 4 4 5 6 5 5 4 4 3 2 3 3 2 2 4 4 5 4 4 3 3 3 1 2 4 7 6 6 7 8
9 8 8 7 7 6 6 6 6 6 6 6 6 4 4 5 5 5 6 6 6 5 5 4 4 3 4 4 4 4 3 3 3 3 4 4 4 5 6 6 5 5 4 4 3 2 3 3 4 4 5 4 4 4 4 2 2 2 5 6 7 7 8
8 8 8 7 7 7 6 5 5 6 6 5 5 5 4 3 4 5 5 6 6 5 5 5 4 3 3 2 3 3 3 2 2 2 3 3 2 3 4 5 5 5 5 5 4 4 3 4 4 4 5 4 4 3 3 5 5 4 5 7 7 5 5
7 8 7 6 6 5 5 5 5 4 5 6 5 5 5 4 4 5 5 5 5 5 5 4 5 4 3 3 3 2 2 2 2 2 2 1 2 2 2 3 3 3 3 2 3 3 2 3 2 2 2 2 1 2 3 4 5 5 6 6 7 7 5
6 6 6 6 6 6 6 6 5 5 4 5 6 6 5 6 4 4 4 5 5 5 5 4 4 3 3 3 3 3 3 2 2 2 2 2 2 1 1 2 2 2 1 1 1 2 2 2 1 2 2 1 1 1 2 3 4 5 5 5 5 6 7
7 7 8 8 8 8 7 6 5 4 4 4 4 6 7 6 4 3 3 3 3 3 4 4 4 4 3 3 3 2 2 3 3 3 3 3 3 3 3 3 3 3 2 2 2 2 3 3 2 3 2 2 2 2 2 3 4 4 5 5 5 6 6
7 8 9 10 9 8 8 8 7 6 4 3 2 3 2 2 5 4 3 3 3 2 2 2 2 3 3 3 2 2 2 3 3 4 4 4 4 4 4 3 3 4 3 2 0 2 3 2 3 2 3 3 3 3 3 3 4 4 4 5 5 4 5
7 7 8 8 8 8 7 6 6 5 4 3 4 2 3 1 2 3 3 3 3 2 1 0 2 2 2 1 3 2 2 3 3 3 4 4 3 4 5 4 3 4 4 5 5 5 6 7 6 3 2 5 4 4 4 4 4 4 5 5 6 5 6
6 7 6 7 6 7 7 6 4 4 3 3 4 4 2 2 2 2 2 2 2 2 1 3 6 1 1 3 2 3 3 3 4 4 4 5 5 5 5 5 4 5 5 5 6 7 7 7 5 2 2 3 4 4 4 4 5 5 5 6 5 6 7
7 7 6 7 5 6 4 3 3 3 3 3 3 5 4 3 3 3 2 1 1 1 4 9 6 4 1 3 2 2 2 3 3 4 4 5 4 3 3 3 3 3 4 4 4 5 5 5 4 2 2 3 4 6 6 4 4 4 5 5 5 6 7
8 8 9 9 8 6 5 5 5 6 5 4 4 8 7 6 5 4 3 4 5 6 6 9 8 7 5 2 2 3 3 3 3 3 4 4 4 4 3 3 3 3 2 5 4 4 4 4 4 1 0 2 3 5 6 6 6 4 4 6 7 7 7
9 8 8 8 7 7 7 7 7 5 2 4 7 8 7 7 6 6 6 5 7 8 8 10 8 7 6 6 3 1 2 3 3 4 4 4 3 4 3 3 4 3 3 3 4 4 4 4 4 4 5 5 5 6 6 6 7 6 5 6 7 8 7
9 8 8 8 9 9 8 7 7 5 5 7 7 8 6 7 6 7 7 6 7 8 8 11 10 8 6 5 3 2 0 1 2 3 3 3 3 3 3 3 4 5 4 4 3 3 4 5 4 4 5 5 6 5 4 5 5 4 5 5 6 7 6
9 8 8 9 10 10 9 9 7 5 7 8 7 7 7 7 7 8 8 7 7 8 9 15 12 11 9 6 3 2 1 0 1 2 3 3 3 3 4 4 5 5 5 5 4 6 4 3 3 5 5 5 4 3 4 4 3 3 4 4 4 5 5
8 8 8 10 10 9 8 8 8 6 7 8 7 8 7 7 6 7 8 9 8 7 9 14 15 14 13 11 6 3 2 1 1 2 2 2 3 3 4 4 4 5 4 5 3 6 7 5 5 6 6 6 5 5 6 3 4 4 3 4 3 2 2
9 9 9 10 8 7 7 6 6 3 5 7 8 7 5 6 7 7 8 8 7 7 7 11 14 14 14 13 8 4 3 2 2 3 3 2 2 3 3 4 5 5 5 3 6 6 7 7 6 6 6 6 6 7 7 4 2 2 5 6 7 7 8
10 9 10 9 8 8 8 6 5 4 4 5 6 4 4 5 6 6 6 6 9 9 7 9 13 13 13 13 9 5 4 3 3 3 4 4 3 3 2 5 8 5 3 2 3 4 7 8 6 7 7 8 9 9 8 6 6 5 5 5 5 7 6
9 9 8 8 7 6 5 5 6 5 5 4 4 4 4 4 5 4 4 5 7 7 7 6 9 10 11 12 11 5 4 4 4 5 5 5 6 5 5 5 2 3 3 4 4 1 4 7 7 7 6 8 9 10 7 5 7 7 7 6 6 5 5
9 8 7 6 6 6 5 5 4 5 5 4 5 5 5 4 5 5 5 6 6 6 5 4 5 9 10 11 11 9 4 5 4 5 5 6 5 6 5 4 5 7 4 3 4 3 3 5 6 7 8 9 10 6 1 4 6 5 6 6 6 5 5
7 6 6 6 6 6 5 6 5 5 4 4 5 5 5 5 4 4 4 4 4 4 4 7 6 7 8 8 9 10 6 5 5 5 6 6 6 5 6 5 5 3 3 1 4 5 6 6 8 5 10 13 9 5 6 5 5 6 5 6 6 6 6
6 5 5 5 5 5 4 5 5 4 4 4 4 4 4 3 3 3 3 3 3 3 3 3 4 5 6 6 7 6 6 6 6 4 4 5 6 6 6 7 6 3 4 5 8 8 8 9 7 9 13 13 12 9 6 5 5 6 6 6 6 6 6
6 6 5 5 5 6 5 4 5 5 4 4 4 4 3 3 3 3 3 2 2 2 2 3 1 3 4 4 4 5 6 5 5 4 4 4 5 5 6 6 6 10 10 9 9 9 10 9 8 12 12 13 11 9 7 6 6 6 6 6 7 7 6
Wind_Direction
152 147 147 139 120 132 143 138 135 140 156 168 162 167 165 166 163 163 168 173 179 178 184 186 188 180 167 186 219 213 203 199 204 212 187 175 186 181 195 226 162 130 143 14 161 163 142 128 114 107 84 73 73 69 69 63 66 76 90 87 91 92 87
142 135 134 138 140 137 137 134 140 141 144 157 168 159 160 158 160 160 164 167 178 173 186 177 189 185 189 188 200 203 204 204 213 215 202 195 209 176 181 166 152 146 150 144 162 163 149 142 142 122 103 90 77 62 65 64 57 63 63 65 74 86 93
132 130 145 141 142 152 147 149 147 146 144 146 150 156 154 156 159 163 171 174 180 176 187 183 178 182 185 194 206 205 207 204 204 211 216 217 210 178 198 159 157 153 161 148 167 162 147 150 151 141 136 133 106 68 72 77 81 71 81 83 88 86 93
145 146 146 143 144 158 158 157 158 144 145 138 139 145 155 154 156 164 165 163 162 164 182 180 190 186 172 173 199 211 206 212 199 197 206 222 200 181 185 185 181 179 173 179 172 167 151 139 140 133 125 122 125 114 72 80 97 102 101 95 96 96 96
152 156 156 154 160 165 162 157 147 142 136 130 137 140 150 157 150 145 137 141 150 162 169 170 158 166 149 160 180 205 206 208 195 192 198 187 188 180 191 190 187 172 170 190 169 161 152 141 144 135 132 133 127 115 116 102 91 93 91 91 90 98 97
159 160 159 156 163 161 158 149 152 151 138 140 142 139 141 153 148 141 145 145 143 145 133 142 132 139 146 163 164 182 191 192 187 185 180 179 185 190 182 172 169 171 192 185 156 147 133 135 141 142 141 146 134 129 124 130 108 85 79 92 98 95 104
162 162 161 159 160 155 155 152 157 152 153 144 143 132 136 146 133 119 128 123 113 120 124 113 119 127 145 152 143 144 144 150 164 179 173 170 186 187 167 170 180 178 128 157 150 151 148 151 148 147 139 133 134 120 123 119 119 125 96 91 96 104 104
165 166 160 151 153 151 155 153 151 149 151 141 127 116 132 133 123 125 123 123 121 116 116 119 117 125 126 132 115 110 113 121 151 178 161 171 169 173 178 179 167 181 159 165 169 166 162 156 154 154 149 137 127 123 124 123 119 86 117 101 111 115 102
161 154 137 135 145 151 154 159 153 151 137 126 118 128 135 140 138 131 126 115 114 114 115 121 130 129 128 127 117 119 112 123 128 133 131 142 115 136 170 163 180 170 162 168 174 162 163 153 153 159 166 147 141 136 140 133 137 115 130 129 119 113 127
152 152 151 153 152 152 154 158 149 135 127 132 132 136 138 136 137 136 129 123 116 118 118 120 121 112 108 102 105 106 102 116 116 107 103 101 103 135 146 170 182 154 157 151 157 152 143 152 158 163 172 147 142 137 152 150 153 148 161 162 150 150 148
156 153 149 152 152 151 152 146 133 137 141 134 134 138 137 137 136 136 129 123 120 118 118 117 110 107 110 101 101 97 100 109 103 99 91 100 108 123 139 162 164 155 141 160 153 151 151 157 161 164 168 150 153 144 151 154 148 164 150 166 171 150 169
155 154 154 151 155 156 155 153 149 129 124 133 136 139 145 144 143 138 132 126 125 121 116 114 117 116 119 116 115 112 114 112 111 105 101 115 128 145 148 149 153 143 148 148 149 155 156 164 165 167 159 170 95 147 148 143 149 162 172 165 164 154 163
162 161 156 155 162 159 149 142 135 134 136 137 138 144 149 151 150 145 137 129 127 126 122 114 118 121 119 111 118 114 115 126 108 104 109 123 138 140 142 146 150 147 154 155 155 160 164 169 172 172 166 165 157 190 158 148 133 151 174 157 151 157 163
152 149 151 162 158 148 135 135 138 137 134 141 143 146 149 152 154 147 141 139 138 138 132 126 124 123 116 109 96 99 110 102 96 96 106 111 123 135 134 136 135 129 150 156 153 159 169 171 174 181 169 169 132 168 190 130 118 131 138 85 149 160 161
154 154 151 155 149 142 138 136 136 141 148 145 152 146 145 144 151 149 142 138 136 136 135 132 135 126 117 107 95 79 98 103 98 94 97 100 106 103 114 123 127 132 153 153 151 167 169 177 186 195 186 199 181 169 334 276 117 152 154 162 168 160 164
147 149 150 156 157 148 143 140 146 148 148 145 143 142 140 147 152 149 139 137 137 137 139 136 138 132 121 120 114 104 96 106 116 117 105 106 115 120 115 111 116 126 133 138 152 153 155 189 203 214 214 210 216 190 178 125 180 170 164 168 173 175 181
150 151 152 160 155 147 146 143 144 141 140 143 144 125 130 145 150 147 138 137 141 143 144 141 146 152 145 136 133 129 124 115 110 108 103 95 93 107 117 120 125 133 142 138 158 175 193 209 221 234 230 216 219 201 191 180 222 219 176 168 184 192 183
151 150 151 156 150 142 142 135 136 137 133 134 128 130 128 139 153 155 149 148 145 149 151 151 151 145 137 140 134 130 124 111 108 95 84 85 84 84 98 112 134 141 148 143 157 173 180 200 218 227 234 230 228 202 189 203 208 204 192 193 170 188 172
146 143 137 128 119 111 112 114 118 112 130 135 131 135 144 152 169 167 160 150 150 152 154 158 165 160 150 146 137 124 123 126 122 117 100 77 69 62 77 104 130 153 156 154 147 148 167 180 187 222 226 240 220 173 201 195 207 211 218 212 179 171 186
107 107 104 103 103 104 102 103 116 122 131 143 149 146 153 154 163 170 153 146 153 159 160 166 166 159 157 159 160 154 152 150 146 139 150 146 123 113 113 128 136 144 127 99 124 140 150 168 194 219 229 204 225 179 180 194 197 202 216 211 193 191 184
102 104 104 103 101 100 99 88 81 89 108 138 154 155 161 161 150 159 141 143 138 146 159 167 167 164 162 161 166 170 176 178 172 168 168 177 181 180 178 177 178 174 178 163 178 167 182 185 183 191 178 194 178 188 194 185 197 206 210 217 215 199 200
100 103 105 106 105 103 100 93 88 89 98 113 119 93 58 143 149 142 127 122 125 128 167 177 167 169 166 164 176 187 192 199 199 190 186 184 190 197 195 194 194 194 185 193 238 237 207 186 186 180 171 185 176 182 189 194 206 216 222 227 222 210 204
96 98 93 90 86 82 80 84 98 100 83 91 87 72 102 97 121 131 143 133 135 144 166 177 65 74 357 179 177 187 176 196 206 209 204 203 200 207 205 197 203 204 209 216 209 212 211 214 241 318 162 178 181 188 185 198 206 216 227 227 231 216 215
86 86 89 82 75 69 53 58 39 68 93 62 85 94 89 132 114 98 97 123 140 148 78 60 45 75 80 327 291 213 211 201 202 209 213 216 219 204 193 191 191 187 206 209 213 209 215 216 222 236 249 213 219 209 194 201 210 205 219 229 228 219 226
70 65 72 87 86 92 97 81 58 51 69 80 87 88 73 78 80 88 108 126 124 76 79 30 23 29 233 205 246 265 250 238 212 220 226 234 241 228 213 189 181 180 203 202 201 186 201 214 229 250 241 239 250 272 294 280 245 214 213 234 229 225 232
68 71 81 92 97 89 83 78 72 64 54 57 68 69 61 58 53 52 63 85 73 66 63 19 39 41 53 52 160 228 240 232 248 251 248 250 255 256 245 236 218 201 184 154 208 210 205 183 171 177 112 204 245 242 256 279 307 302 242 237 249 245 230
68 61 58 61 63 61 59 62 63 61 92 76 64 63 52 54 58 52 51 65 78 62 44 9 21 45 55 58 56 257 231 237 240 251 256 258 269 279 287 290 280 260 224 204 218 213 204 209 189 189 206 218 219 201 225 242 247 261 275 259 252 257 250
71 65 60 63 63 61 58 53 53 39 39 50 55 59 50 46 43 43 43 56 74 64 42 15 18 26 48 64 54 285 103 227 231 238 244 247 257 259 254 250 250 259 259 243 223 195 225 219 209 210 218 224 226 224 214 219 224 226 222 231 249 254 261
76 70 65 68 68 67 64 55 50 41 60 62 58 62 59 49 46 48 43 44 57 58 43 24 20 23 21 18 322 96 74 307 255 251 238 230 234 234 232 233 238 241 247 251 213 176 233 271 250 251 248 246 240 234 241 96 26 303 285 287 267 262 262
59 66 69 68 66 63 64 60 43 10 64 68 63 60 60 54 47 50 50 46 43 46 39 22 16 20 20 8 11 42 24 322 277 275 267 261 242 231 232 235 244 258 251 256 139 164 196 202 238 240 244 241 234 236 238 160 94 54 286 263 292 341 14
53 53 59 67 69 68 68 66 70 35 41 60 59 51 54 57 49 47 50 54 47 52 45 30 21 19 22 13 8 28 10 343 324 311 301 272 256 241 215 190 251 255 259 269 108 176 180 196 236 239 242 240 230 232 231 178 180 99 79 73 75 87 101
54 53 54 49 50 55 50 55 51 40 57 76 78 69 61 78 71 59 50 52 45 51 42 37 27 24 24 23 18 31 13 354 348 349 329 310 300 283 273 193 196 239 281 332 67 154 178 209 253 261 263 264 261 256 249 177 188 177 167 154 136 128 112
51 53 54 52 50 50 48 46 39 48 42 43 61 63 58 62 77 69 53 51 53 44 32 29 32 24 31 28 18 16 28 14 357 338 328 319 312 311 309 316 149 152 273 302 309 292 203 209 241 253 259 256 260 261 260 191 198 200 185 179 153 140 121
54 56 55 57 55 52 45 46 44 49 45 44 52 53 44 40 53 53 45 43 52 55 40 21 42 34 32 32 24 16 38 28 358 336 323 316 309 306 306 312 308 73 58 36 326 313 274 231 231 252 249 246 249 270 135 225 173 190 181 147 138 133 130
44 47 47 52 56 52 40 38 38 40 42 46 52 54 44 47 50 58 62 60 52 48 52 41 13 42 30 28 33 25 21 25 5 333 325 313 309 297 300 309 310 55 60 356 280 254 251 248 238 236 245 248 260 152 210 231 168 174 160 157 153 151 147
41 40 43 42 49 53 48 53 53 54 55 61 69 68 60 52 57 59 58 55 55 44 26 38 33 20 28 16 25 32 20 5 340 319 323 310 305 299 296 297 291 25 346 297 269 259 247 239 231 235 241 246 249 207 203 209 165 165 161 164 160 158 153
48 47 44 46 54 53 46 41 45 39 33 33 33 41 41 36 38 45 43 37 41 28 16 358 41 48 6 10 2 7 2 350 342 347 315 295 300 298 295 293 308 325 307 297 277 256 249 235 232 234 230 237 224 195 202 180 176 174 163 160 167 163 159